owner,sensor,date,latitude,longitude,vertical_datum,direction_of_sea_water_velocity,sea_water_speed,upward_sea_water_velocity,qcFlag 
TABS,ioos:station:wmo:42049:1,2003-06-01T00:00:00Z,28.3507,-96.0058,2.0,70.32735575,44.94328982,-99999.0,'11111222,11111222,99999999' 
TABS,ioos:station:wmo:42049:1,2003-06-01T00:30:00Z,28.3507,-96.0058,2.0,70.20890431,41.82018771,-99999.0,'11111222,11111222,99999999' 
TABS,ioos:station:wmo:42049:1,2003-06-01T01:00:00Z,28.3507,-96.0058,2.0,69.47985549,43.01965249,-99999.0,'11111222,11111222,99999999' 
TABS,ioos:station:wmo:42049:1,2003-06-01T01:30:00Z,28.3507,-96.0058,2.0,67.57725909,43.83410544,-99999.0,'11111222,11111222,99999999' 
TABS,ioos:station:wmo:42049:1,2003-06-01T02:00:00Z,28.3507,-96.0058,2.0,68.8800364,43.87734039,-99999.0,'11111222,11111222,99999999' 
TABS,ioos:station:wmo:42049:1,2003-06-01T02:30:00Z,28.3507,-96.0058,2.0,64.66048995,45.37572589,-99999.0,'11111222,11111222,99999999' 
TABS,ioos:station:wmo:42049:1,2003-06-01T03:00:00Z,28.3507,-96.0058,2.0,68.11632718,43.94670409,-99999.0,'11111222,11111222,99999999' 
TABS,ioos:station:wmo:42049:1,2003-06-01T03:30:00Z,28.3507,-96.0058,2.0,66.56694365,43.62824085,-99999.0,'11111222,11111222,99999999' 
TABS,ioos:station:wmo:42049:1,2003-06-01T04:00:00Z,28.3507,-96.0058,2.0,64.83441381,42.11772192,-99999.0,'11111222,11111222,99999999' 
TABS,ioos:station:wmo:42049:1,2003-06-01T04:30:00Z,28.3507,-96.0058,2.0,62.86100443,45.53310115,-99999.0,'11111222,11111222,99999999' 
TABS,ioos:station:wmo:42049:1,2003-06-01T05:00:00Z,28.3507,-96.0058,2.0,59.24633424,49.59429403,-99999.0,'11111222,11111222,99999999' 
TABS,ioos:station:wmo:42049:1,2003-06-01T05:30:00Z,28.3507,-96.0058,2.0,61.46156375,47.66098824,-99999.0,'11111222,11111222,99999999' 
TABS,ioos:station:wmo:42049:1,2003-06-01T06:00:00Z,28.3507,-96.0058,2.0,62.4634741,50.37690939,-99999.0,'11111222,11111222,99999999' 
TABS,ioos:station:wmo:42049:1,2003-06-01T06:30:00Z,28.3507,-96.0058,2.0,58.63586691,51.52972346,-99999.0,'11111222,11111222,99999999' 
TABS,ioos:station:wmo:42049:1,2003-06-01T07:00:00Z,28.3507,-96.0058,2.0,60.34056452,52.44070366,-99999.0,'11111222,11111222,99999999' 
TABS,ioos:station:wmo:42049:1,2003-06-01T07:30:00Z,28.3507,-96.0058,2.0,61.79347598,56.04544763,-99999.0,'11111222,11111222,99999999' 
TABS,ioos:station:wmo:42049:1,2003-06-01T08:00:00Z,28.3507,-96.0058,2.0,62.39298369,57.78955355,-99999.0,'11111222,11111222,99999999' 
TABS,ioos:station:wmo:42049:1,2003-06-01T08:30:00Z,28.3507,-96.0058,2.0,65.82173308,54.44629372,-99999.0,'11111222,11111222,99999999' 
TABS,ioos:station:wmo:42049:1,2003-06-01T09:00:00Z,28.3507,-96.0058,2.0,66.94570954,55.2854357,-99999.0,'11111222,11111222,99999999' 
TABS,ioos:station:wmo:42049:1,2003-06-01T09:30:00Z,28.3507,-96.0058,2.0,65.28035614,58.46772272,-99999.0,'11111222,11111222,99999999' 
TABS,ioos:station:wmo:42049:1,2003-06-01T10:00:00Z,28.3507,-96.0058,2.0,65.94594082,57.77733206,-99999.0,'11111222,11111222,99999999' 
TABS,ioos:station:wmo:42049:1,2003-06-01T10:30:00Z,28.3507,-96.0058,2.0,67.32555473,57.27694912,-99999.0,'11111222,11111222,99999999' 
TABS,ioos:station:wmo:42049:1,2003-06-01T11:00:00Z,28.3507,-96.0058,2.0,67.17135002,56.13729598,-99999.0,'11111222,11111222,99999999' 
TABS,ioos:station:wmo:42049:1,2003-06-01T11:30:00Z,28.3507,-96.0058,2.0,67.71689148,50.13394259,-99999.0,'11111222,11111222,99999999' 
TABS,ioos:station:wmo:42049:1,2003-06-01T12:00:00Z,28.3507,-96.0058,2.0,72.47747881,57.39312938,-99999.0,'11111222,11111222,99999999' 
TABS,ioos:station:wmo:42049:1,2003-06-01T12:30:00Z,28.3507,-96.0058,2.0,73.23219703,60.00115499,-99999.0,'11111222,11111222,99999999' 
TABS,ioos:station:wmo:42049:1,2003-06-01T13:00:00Z,28.3507,-96.0058,2.0,76.06351423,57.13177837,-99999.0,'11111222,11111222,99999999' 
TABS,ioos:station:wmo:42049:1,2003-06-01T13:30:00Z,28.3507,-96.0058,2.0,76.29055728,54.00871133,-99999.0,'11111222,11111222,99999999' 
TABS,ioos:station:wmo:42049:1,2003-06-01T14:00:00Z,28.3507,-96.0058,2.0,74.06420866,57.58292282,-99999.0,'11111222,11111222,99999999' 
TABS,ioos:station:wmo:42049:1,2003-06-01T14:30:00Z,28.3507,-96.0058,2.0,75.43072662,54.22361109,-99999.0,'11111222,11111222,99999999' 
TABS,ioos:station:wmo:42049:1,2003-06-01T15:00:00Z,28.3507,-96.0058,2.0,76.39506986,52.84273365,-99999.0,'11111222,11111222,99999999' 
TABS,ioos:station:wmo:42049:1,2003-06-01T15:30:00Z,28.3507,-96.0058,2.0,75.68078095,54.50327054,-99999.0,'11111222,11111222,99999999' 
TABS,ioos:station:wmo:42049:1,2003-06-01T16:00:00Z,28.3507,-96.0058,2.0,77.03016734,55.51631832,-99999.0,'11111222,11111222,99999999' 
TABS,ioos:station:wmo:42049:1,2003-06-01T16:30:00Z,28.3507,-96.0058,2.0,76.88687474,56.15428479,-99999.0,'11111222,11111222,99999999' 
TABS,ioos:station:wmo:42049:1,2003-06-01T17:00:00Z,28.3507,-96.0058,2.0,78.2491258,53.76683085,-99999.0,'11111222,11111222,99999999' 
TABS,ioos:station:wmo:42049:1,2003-06-01T17:30:00Z,28.3507,-96.0058,2.0,78.66046632,53.09648953,-99999.0,'11111222,11111222,99999999' 
TABS,ioos:station:wmo:42049:1,2003-06-01T18:00:00Z,28.3507,-96.0058,2.0,75.69340134,51.39387123,-99999.0,'11111222,11111222,99999999' 
TABS,ioos:station:wmo:42049:1,2003-06-01T18:30:00Z,28.3507,-96.0058,2.0,72.55860367,48.87718691,-99999.0,'11111222,11111222,99999999' 
TABS,ioos:station:wmo:42049:1,2003-06-01T19:00:00Z,28.3507,-96.0058,2.0,76.34537499,48.79924999,-99999.0,'11111222,11111222,99999999' 
TABS,ioos:station:wmo:42049:1,2003-06-01T19:30:00Z,28.3507,-96.0058,2.0,71.9553011,49.68369652,-99999.0,'11111222,11111222,99999999' 
TABS,ioos:station:wmo:42049:1,2003-06-01T20:00:00Z,28.3507,-96.0058,2.0,70.07759457,51.6510755,-99999.0,'11111222,11111222,99999999' 
TABS,ioos:station:wmo:42049:1,2003-06-01T20:30:00Z,28.3507,-96.0058,2.0,70.71175135,46.28822961,-99999.0,'11111222,11111222,99999999' 
TABS,ioos:station:wmo:42049:1,2003-06-01T21:00:00Z,28.3507,-96.0058,2.0,66.47450434,44.86945175,-99999.0,'11111222,11111222,99999999' 
TABS,ioos:station:wmo:42049:1,2003-06-01T21:30:00Z,28.3507,-96.0058,2.0,69.73277895,47.37300603,-99999.0,'11111222,11111222,99999999' 
TABS,ioos:station:wmo:42049:1,2003-06-01T22:00:00Z,28.3507,-96.0058,2.0,65.63611272,46.22679959,-99999.0,'11111222,11111222,99999999' 
TABS,ioos:station:wmo:42049:1,2003-06-01T22:30:00Z,28.3507,-96.0058,2.0,64.91741791,46.3289456,-99999.0,'11111222,11111222,99999999' 
TABS,ioos:station:wmo:42049:1,2003-06-01T23:00:00Z,28.3507,-96.0058,2.0,64.83006294,49.96409611,-99999.0,'11111222,11111222,99999999' 
TABS,ioos:station:wmo:42049:1,2003-06-01T23:30:00Z,28.3507,-96.0058,2.0,65.96120296,46.47040456,-99999.0,'11111222,11111222,99999999' 
TABS,ioos:station:wmo:42049:1,2003-06-02T00:00:00Z,28.3507,-96.0058,2.0,66.47752142,45.75183166,-99999.0,'11111222,11111222,99999999' 
TABS,ioos:station:wmo:42049:1,2003-06-02T00:30:00Z,28.3507,-96.0058,2.0,67.53141848,42.25783951,-99999.0,'11111222,11111222,99999999' 
TABS,ioos:station:wmo:42049:1,2003-06-02T01:00:00Z,28.3507,-96.0058,2.0,67.40231918,41.82077235,-99999.0,'11111222,11111222,99999999' 
TABS,ioos:station:wmo:42049:1,2003-06-02T01:30:00Z,28.3507,-96.0058,2.0,64.01254341,41.26202249,-99999.0,'11111222,11111222,99999999' 
TABS,ioos:station:wmo:42049:1,2003-06-02T02:00:00Z,28.3507,-96.0058,2.0,62.92972514,39.04773745,-99999.0,'11111222,11111222,99999999' 
TABS,ioos:station:wmo:42049:1,2003-06-02T02:30:00Z,28.3507,-96.0058,2.0,60.73886986,38.78952436,-99999.0,'11111222,11111222,99999999' 
TABS,ioos:station:wmo:42049:1,2003-06-02T03:00:00Z,28.3507,-96.0058,2.0,57.80915361,37.31636102,-99999.0,'11111222,11111222,99999999' 
TABS,ioos:station:wmo:42049:1,2003-06-02T03:30:00Z,28.3507,-96.0058,2.0,57.28629143,35.32288918,-99999.0,'11111222,11111222,99999999' 
TABS,ioos:station:wmo:42049:1,2003-06-02T04:00:00Z,28.3507,-96.0058,2.0,54.59272414,34.24315552,-99999.0,'11111222,11111222,99999999' 
TABS,ioos:station:wmo:42049:1,2003-06-02T04:30:00Z,28.3507,-96.0058,2.0,54.48057249,36.66218215,-99999.0,'11111222,11111222,99999999' 
TABS,ioos:station:wmo:42049:1,2003-06-02T05:00:00Z,28.3507,-96.0058,2.0,49.99157918,34.70205325,-99999.0,'11111222,11111222,99999999' 
TABS,ioos:station:wmo:42049:1,2003-06-02T05:30:00Z,28.3507,-96.0058,2.0,49.34363763,33.79778099,-99999.0,'11111222,11111222,99999999' 
TABS,ioos:station:wmo:42049:1,2003-06-02T06:00:00Z,28.3507,-96.0058,2.0,43.03501057,36.91146841,-99999.0,'11111222,11111222,99999999' 
TABS,ioos:station:wmo:42049:1,2003-06-02T06:30:00Z,28.3507,-96.0058,2.0,42.34942174,36.69567822,-99999.0,'11111222,11111222,99999999' 
TABS,ioos:station:wmo:42049:1,2003-06-02T07:00:00Z,28.3507,-96.0058,2.0,43.67085505,38.10209574,-99999.0,'11111222,11111222,99999999' 
TABS,ioos:station:wmo:42049:1,2003-06-02T07:30:00Z,28.3507,-96.0058,2.0,40.52405335,36.15149375,-99999.0,'11111222,11111222,99999999' 
TABS,ioos:station:wmo:42049:1,2003-06-02T08:00:00Z,28.3507,-96.0058,2.0,42.00872896,37.80394292,-99999.0,'11111222,11111222,99999999' 
TABS,ioos:station:wmo:42049:1,2003-06-02T08:30:00Z,28.3507,-96.0058,2.0,40.00577362,39.23073922,-99999.0,'11111222,11111222,99999999' 
TABS,ioos:station:wmo:42049:1,2003-06-02T09:00:00Z,28.3507,-96.0058,2.0,42.97395763,39.79963945,-99999.0,'11111222,11111222,99999999' 
TABS,ioos:station:wmo:42049:1,2003-06-02T09:30:00Z,28.3507,-96.0058,2.0,42.59329861,40.4114464,-99999.0,'11111222,11111222,99999999' 
TABS,ioos:station:wmo:42049:1,2003-06-02T10:00:00Z,28.3507,-96.0058,2.0,43.78530199,42.35814562,-99999.0,'11111222,11111222,99999999' 
TABS,ioos:station:wmo:42049:1,2003-06-02T10:30:00Z,28.3507,-96.0058,2.0,42.15710507,39.63261788,-99999.0,'11111222,11111222,99999999' 
TABS,ioos:station:wmo:42049:1,2003-06-02T11:00:00Z,28.3507,-96.0058,2.0,45.58911446,40.5830026,-99999.0,'11111222,11111222,99999999' 
TABS,ioos:station:wmo:42049:1,2003-06-02T11:30:00Z,28.3507,-96.0058,2.0,44.00152214,39.35646961,-99999.0,'11111222,11111222,99999999' 
TABS,ioos:station:wmo:42049:1,2003-06-02T12:00:00Z,28.3507,-96.0058,2.0,48.96026251,42.79729431,-99999.0,'11111222,11111222,99999999' 
TABS,ioos:station:wmo:42049:1,2003-06-02T12:30:00Z,28.3507,-96.0058,2.0,51.50838732,40.98641848,-99999.0,'11111222,11111222,99999999' 
TABS,ioos:station:wmo:42049:1,2003-06-02T13:00:00Z,28.3507,-96.0058,2.0,53.30255411,39.22417749,-99999.0,'11111222,11111222,99999999' 
TABS,ioos:station:wmo:42049:1,2003-06-02T13:30:00Z,28.3507,-96.0058,2.0,56.46880639,43.03103299,-99999.0,'11111222,11111222,99999999' 
TABS,ioos:station:wmo:42049:1,2003-06-02T14:00:00Z,28.3507,-96.0058,2.0,56.9172096,40.304006,-99999.0,'11111222,11111222,99999999' 
TABS,ioos:station:wmo:42049:1,2003-06-02T15:00:00Z,28.3507,-96.0058,2.0,60.08751833,37.29864475,-99999.0,'11111222,11111222,99999999' 
TABS,ioos:station:wmo:42049:1,2003-06-02T15:30:00Z,28.3507,-96.0058,2.0,54.73478929,35.21180768,-99999.0,'11111222,11111222,99999999' 
TABS,ioos:station:wmo:42049:1,2003-06-02T16:00:00Z,28.3507,-96.0058,2.0,62.31365043,31.07835259,-99999.0,'11111222,11111222,99999999' 
TABS,ioos:station:wmo:42049:1,2003-06-02T16:30:00Z,28.3507,-96.0058,2.0,58.43846997,33.52979869,-99999.0,'11111222,11111222,99999999' 
TABS,ioos:station:wmo:42049:1,2003-06-02T17:00:00Z,28.3507,-96.0058,2.0,57.16504054,35.87090883,-99999.0,'11111222,11111222,99999999' 
TABS,ioos:station:wmo:42049:1,2003-06-02T17:30:00Z,28.3507,-96.0058,2.0,63.52050357,32.96862296,-99999.0,'11111222,11111222,99999999' 
TABS,ioos:station:wmo:42049:1,2003-06-02T18:00:00Z,28.3507,-96.0058,2.0,59.15595783,30.38790055,-99999.0,'11111222,11111222,99999999' 
TABS,ioos:station:wmo:42049:1,2003-06-02T18:30:00Z,28.3507,-96.0058,2.0,55.37192078,30.83159581,-99999.0,'11111222,11111222,99999999' 
TABS,ioos:station:wmo:42049:1,2003-06-02T19:00:00Z,28.3507,-96.0058,2.0,55.48662566,29.91529709,-99999.0,'11111222,11111222,99999999' 
TABS,ioos:station:wmo:42049:1,2003-06-02T19:30:00Z,28.3507,-96.0058,2.0,58.40966974,30.73438465,-99999.0,'11111222,11111222,99999999' 
TABS,ioos:station:wmo:42049:1,2003-06-02T20:00:00Z,28.3507,-96.0058,2.0,66.81269487,26.7943912,-99999.0,'11111222,11111222,99999999' 
TABS,ioos:station:wmo:42049:1,2003-06-02T20:30:00Z,28.3507,-96.0058,2.0,60.1113121,28.15473317,-99999.0,'11111222,11111222,99999999' 
TABS,ioos:station:wmo:42049:1,2003-06-02T21:00:00Z,28.3507,-96.0058,2.0,51.56989722,28.05840338,-99999.0,'11111222,11111222,99999999' 
TABS,ioos:station:wmo:42049:1,2003-06-02T21:30:00Z,28.3507,-96.0058,2.0,52.10844221,27.14231567,-99999.0,'11111222,11111222,99999999' 
TABS,ioos:station:wmo:42049:1,2003-06-02T22:00:00Z,28.3507,-96.0058,2.0,51.53275538,23.24503388,-99999.0,'11111222,11111222,99999999' 
TABS,ioos:station:wmo:42049:1,2003-06-02T22:30:00Z,28.3507,-96.0058,2.0,58.29613289,17.12556276,-99999.0,'11111222,11111222,99999999' 
TABS,ioos:station:wmo:42049:1,2003-06-02T23:00:00Z,28.3507,-96.0058,2.0,65.34927846,18.3415212,-99999.0,'11111222,11111222,99999999' 
TABS,ioos:station:wmo:42049:1,2003-06-02T23:30:00Z,28.3507,-96.0058,2.0,75.46670933,18.17145289,-99999.0,'11111222,11111222,99999999' 
TABS,ioos:station:wmo:42049:1,2003-06-03T00:00:00Z,28.3507,-96.0058,2.0,86.32203997,15.12114414,-99999.0,'11111222,11111222,99999999' 
TABS,ioos:station:wmo:42049:1,2003-06-03T00:30:00Z,28.3507,-96.0058,2.0,97.19777505,16.60082227,-99999.0,'11111222,11111222,99999999' 
TABS,ioos:station:wmo:42049:1,2003-06-03T01:00:00Z,28.3507,-96.0058,2.0,113.3187691,16.26890285,-99999.0,'11111222,11111222,99999999' 
TABS,ioos:station:wmo:42049:1,2003-06-03T01:30:00Z,28.3507,-96.0058,2.0,113.6369701,17.15962704,-99999.0,'11111222,11111222,99999999' 
TABS,ioos:station:wmo:42049:1,2003-06-03T02:00:00Z,28.3507,-96.0058,2.0,119.966156,17.33770458,-99999.0,'11111222,11111222,99999999' 
TABS,ioos:station:wmo:42049:1,2003-06-03T02:30:00Z,28.3507,-96.0058,2.0,120.5282325,18.05246244,-99999.0,'11111222,11111222,99999999' 
TABS,ioos:station:wmo:42049:1,2003-06-03T03:00:00Z,28.3507,-96.0058,2.0,105.0639567,9.465262807,-99999.0,'11133222,11111222,99999999' 
TABS,ioos:station:wmo:42049:1,2003-06-03T03:30:00Z,28.3507,-96.0058,2.0,89.36575677,10.84066419,-99999.0,'11111222,11111222,99999999' 
TABS,ioos:station:wmo:42049:1,2003-06-03T04:00:00Z,28.3507,-96.0058,2.0,83.01311114,13.89317098,-99999.0,'11111222,11111222,99999999' 
TABS,ioos:station:wmo:42049:1,2003-06-03T04:30:00Z,28.3507,-96.0058,2.0,78.99648488,15.40318149,-99999.0,'11111222,11111222,99999999' 
TABS,ioos:station:wmo:42049:1,2003-06-03T05:00:00Z,28.3507,-96.0058,2.0,87.14855038,15.67941325,-99999.0,'11111222,11111222,99999999' 
TABS,ioos:station:wmo:42049:1,2003-06-03T05:30:00Z,28.3507,-96.0058,2.0,83.05468337,18.19350434,-99999.0,'11111222,11111222,99999999' 
TABS,ioos:station:wmo:42049:1,2003-06-03T06:00:00Z,28.3507,-96.0058,2.0,76.75639241,21.03955323,-99999.0,'11111222,11111222,99999999' 
TABS,ioos:station:wmo:42049:1,2003-06-03T06:30:00Z,28.3507,-96.0058,2.0,72.47447261,19.32711308,-99999.0,'11111222,11111222,99999999' 
TABS,ioos:station:wmo:42049:1,2003-06-03T07:00:00Z,28.3507,-96.0058,2.0,75.75699654,20.15969246,-99999.0,'11111222,11111222,99999999' 
TABS,ioos:station:wmo:42049:1,2003-06-03T07:30:00Z,28.3507,-96.0058,2.0,73.8278788,23.94762828,-99999.0,'11111222,11111222,99999999' 
TABS,ioos:station:wmo:42049:1,2003-06-03T08:00:00Z,28.3507,-96.0058,2.0,72.53559185,23.52439585,-99999.0,'11111222,11111222,99999999' 
TABS,ioos:station:wmo:42049:1,2003-06-03T08:30:00Z,28.3507,-96.0058,2.0,71.92578191,26.62374316,-99999.0,'11111222,11111222,99999999' 
TABS,ioos:station:wmo:42049:1,2003-06-03T09:00:00Z,28.3507,-96.0058,2.0,83.3333557,26.35822452,-99999.0,'11111222,11111222,99999999' 
TABS,ioos:station:wmo:42049:1,2003-06-03T09:30:00Z,28.3507,-96.0058,2.0,80.70349613,25.56579355,-99999.0,'11111222,11111222,99999999' 
TABS,ioos:station:wmo:42049:1,2003-06-03T10:00:00Z,28.3507,-96.0058,2.0,84.81965437,25.80540447,-99999.0,'11111222,11111222,99999999' 
TABS,ioos:station:wmo:42049:1,2003-06-03T10:30:00Z,28.3507,-96.0058,2.0,85.89178816,28.89424337,-99999.0,'11111222,11111222,99999999' 
TABS,ioos:station:wmo:42049:1,2003-06-03T11:00:00Z,28.3507,-96.0058,2.0,83.50243613,28.54334423,-99999.0,'11111222,11111222,99999999' 
TABS,ioos:station:wmo:42049:1,2003-06-03T11:30:00Z,28.3507,-96.0058,2.0,82.80033415,26.6501257,-99999.0,'11111222,11111222,99999999' 
TABS,ioos:station:wmo:42049:1,2003-06-03T12:00:00Z,28.3507,-96.0058,2.0,80.88907056,26.27145219,-99999.0,'11111222,11111222,99999999' 
TABS,ioos:station:wmo:42049:1,2003-06-03T12:30:00Z,28.3507,-96.0058,2.0,79.76071451,31.27813933,-99999.0,'11111222,11111222,99999999' 
TABS,ioos:station:wmo:42049:1,2003-06-03T13:00:00Z,28.3507,-96.0058,2.0,82.31617402,32.68346677,-99999.0,'11111222,11111222,99999999' 
TABS,ioos:station:wmo:42049:1,2003-06-03T13:30:00Z,28.3507,-96.0058,2.0,80.68293572,32.42780443,-99999.0,'11111222,11111222,99999999' 
TABS,ioos:station:wmo:42049:1,2003-06-03T14:00:00Z,28.3507,-96.0058,2.0,79.02632377,31.41442344,-99999.0,'11111222,11111222,99999999' 
TABS,ioos:station:wmo:42049:1,2003-06-03T14:30:00Z,28.3507,-96.0058,2.0,81.66837031,34.57490709,-99999.0,'11111222,11111222,99999999' 
TABS,ioos:station:wmo:42049:1,2003-06-03T15:00:00Z,28.3507,-96.0058,2.0,76.88493073,32.43605556,-99999.0,'11111222,11111222,99999999' 
TABS,ioos:station:wmo:42049:1,2003-06-03T15:30:00Z,28.3507,-96.0058,2.0,74.08515953,36.10385575,-99999.0,'11111222,11111222,99999999' 
TABS,ioos:station:wmo:42049:1,2003-06-03T16:00:00Z,28.3507,-96.0058,2.0,71.42152129,36.59715426,-99999.0,'11111222,11111222,99999999' 
TABS,ioos:station:wmo:42049:1,2003-06-03T16:30:00Z,28.3507,-96.0058,2.0,72.87146434,39.1148923,-99999.0,'11111222,11111222,99999999' 
TABS,ioos:station:wmo:42049:1,2003-06-03T17:00:00Z,28.3507,-96.0058,2.0,77.32138295,40.23097563,-99999.0,'11111222,11111222,99999999' 
TABS,ioos:station:wmo:42049:1,2003-06-03T17:30:00Z,28.3507,-96.0058,2.0,79.5994723,38.55344343,-99999.0,'11111222,11111222,99999999' 
TABS,ioos:station:wmo:42049:1,2003-06-03T18:00:00Z,28.3507,-96.0058,2.0,79.31105325,34.02030276,-99999.0,'11111222,11111222,99999999' 
TABS,ioos:station:wmo:42049:1,2003-06-03T18:30:00Z,28.3507,-96.0058,2.0,78.72610632,37.44249992,-99999.0,'11111222,11111222,99999999' 
TABS,ioos:station:wmo:42049:1,2003-06-03T19:00:00Z,28.3507,-96.0058,2.0,77.0740311,40.05500218,-99999.0,'11111222,11111222,99999999' 
TABS,ioos:station:wmo:42049:1,2003-06-03T19:30:00Z,28.3507,-96.0058,2.0,73.35551368,44.12899274,-99999.0,'11111222,11111222,99999999' 
TABS,ioos:station:wmo:42049:1,2003-06-03T20:00:00Z,28.3507,-96.0058,2.0,70.63714737,44.91023269,-99999.0,'11111222,11111222,99999999' 
TABS,ioos:station:wmo:42049:1,2003-06-03T20:30:00Z,28.3507,-96.0058,2.0,68.95759278,49.90814362,-99999.0,'11111222,11111222,99999999' 
TABS,ioos:station:wmo:42049:1,2003-06-03T21:00:00Z,28.3507,-96.0058,2.0,69.05651068,52.09152426,-99999.0,'11111222,11111222,99999999' 
TABS,ioos:station:wmo:42049:1,2003-06-03T21:30:00Z,28.3507,-96.0058,2.0,68.92930404,49.51040295,-99999.0,'11111222,11111222,99999999' 
TABS,ioos:station:wmo:42049:1,2003-06-03T22:00:00Z,28.3507,-96.0058,2.0,70.89354912,49.64484465,-99999.0,'11111222,11111222,99999999' 
TABS,ioos:station:wmo:42049:1,2003-06-03T22:30:00Z,28.3507,-96.0058,2.0,72.78618803,45.11064841,-99999.0,'11111222,11111222,99999999' 
TABS,ioos:station:wmo:42049:1,2003-06-03T23:00:00Z,28.3507,-96.0058,2.0,69.78911701,44.69180238,-99999.0,'11111222,11111222,99999999' 
TABS,ioos:station:wmo:42049:1,2003-06-03T23:30:00Z,28.3507,-96.0058,2.0,68.91575208,47.47858886,-99999.0,'11111222,11111222,99999999' 
TABS,ioos:station:wmo:42049:1,2003-06-04T00:00:00Z,28.3507,-96.0058,2.0,72.95390434,45.40467157,-99999.0,'11111222,11111222,99999999' 
TABS,ioos:station:wmo:42049:1,2003-06-04T00:30:00Z,28.3507,-96.0058,2.0,71.17311195,44.37411858,-99999.0,'11111222,11111222,99999999' 
TABS,ioos:station:wmo:42049:1,2003-06-04T01:00:00Z,28.3507,-96.0058,2.0,67.34860014,47.43923798,-99999.0,'11111222,11111222,99999999' 
TABS,ioos:station:wmo:42049:1,2003-06-04T01:30:00Z,28.3507,-96.0058,2.0,68.90970473,45.93713639,-99999.0,'11111222,11111222,99999999' 
TABS,ioos:station:wmo:42049:1,2003-06-04T02:00:00Z,28.3507,-96.0058,2.0,65.34217375,43.0010465,-99999.0,'11111222,11111222,99999999' 
TABS,ioos:station:wmo:42049:1,2003-06-04T02:30:00Z,28.3507,-96.0058,2.0,59.7861301,35.9080186,-99999.0,'11111222,11111222,99999999' 
TABS,ioos:station:wmo:42049:1,2003-06-04T03:00:00Z,28.3507,-96.0058,2.0,55.0277861,35.69557536,-99999.0,'11111222,11111222,99999999' 
TABS,ioos:station:wmo:42049:1,2003-06-04T03:30:00Z,28.3507,-96.0058,2.0,50.51523774,35.68315709,-99999.0,'11111222,11111222,99999999' 
TABS,ioos:station:wmo:42049:1,2003-06-04T04:00:00Z,28.3507,-96.0058,2.0,53.37236012,36.90832968,-99999.0,'11111222,11111222,99999999' 
TABS,ioos:station:wmo:42049:1,2003-06-04T04:30:00Z,28.3507,-96.0058,2.0,45.31509233,37.30044638,-99999.0,'11111222,11111222,99999999' 
TABS,ioos:station:wmo:42049:1,2003-06-04T05:00:00Z,28.3507,-96.0058,2.0,40.68692864,34.88137182,-99999.0,'11111222,11111222,99999999' 
TABS,ioos:station:wmo:42049:1,2003-06-04T05:30:00Z,28.3507,-96.0058,2.0,38.18425711,33.4848085,-99999.0,'11111222,11111222,99999999' 
TABS,ioos:station:wmo:42049:1,2003-06-04T06:00:00Z,28.3507,-96.0058,2.0,36.71893588,37.16412921,-99999.0,'11111222,11111222,99999999' 
TABS,ioos:station:wmo:42049:1,2003-06-04T06:30:00Z,28.3507,-96.0058,2.0,33.03651593,36.46559063,-99999.0,'11111222,11111222,99999999' 
TABS,ioos:station:wmo:42049:1,2003-06-04T07:00:00Z,28.3507,-96.0058,2.0,33.47275947,38.00278411,-99999.0,'11111222,11111222,99999999' 
TABS,ioos:station:wmo:42049:1,2003-06-04T07:30:00Z,28.3507,-96.0058,2.0,26.54263033,34.05979008,-99999.0,'11111222,11111222,99999999' 
TABS,ioos:station:wmo:42049:1,2003-06-04T08:00:00Z,28.3507,-96.0058,2.0,37.66178342,34.15726131,-99999.0,'11111222,11111222,99999999' 
TABS,ioos:station:wmo:42049:1,2003-06-04T08:30:00Z,28.3507,-96.0058,2.0,38.72987266,31.98284853,-99999.0,'11111222,11111222,99999999' 
TABS,ioos:station:wmo:42049:1,2003-06-04T09:00:00Z,28.3507,-96.0058,2.0,42.99961852,36.05613679,-99999.0,'11111222,11111222,99999999' 
TABS,ioos:station:wmo:42049:1,2003-06-04T09:30:00Z,28.3507,-96.0058,2.0,39.49999951,40.7969717,-99999.0,'11111222,11111222,99999999' 
TABS,ioos:station:wmo:42049:1,2003-06-04T10:00:00Z,28.3507,-96.0058,2.0,40.71145875,40.65935071,-99999.0,'11111222,11111222,99999999' 
TABS,ioos:station:wmo:42049:1,2003-06-04T10:30:00Z,28.3507,-96.0058,2.0,37.24976563,44.35897429,-99999.0,'11111222,11111222,99999999' 
TABS,ioos:station:wmo:42049:1,2003-06-04T11:00:00Z,28.3507,-96.0058,2.0,35.67299704,43.84756892,-99999.0,'11111222,11111222,99999999' 
TABS,ioos:station:wmo:42049:1,2003-06-04T11:30:00Z,28.3507,-96.0058,2.0,37.70624845,39.8782472,-99999.0,'11111222,11111222,99999999' 
TABS,ioos:station:wmo:42049:1,2003-06-04T12:00:00Z,28.3507,-96.0058,2.0,50.13682828,38.14604698,-99999.0,'11111222,11111222,99999999' 
TABS,ioos:station:wmo:42049:1,2003-06-04T12:30:00Z,28.3507,-96.0058,2.0,51.21365358,34.62536931,-99999.0,'11111222,11111222,99999999' 
TABS,ioos:station:wmo:42049:1,2003-06-04T13:00:00Z,28.3507,-96.0058,2.0,59.74702326,36.50113697,-99999.0,'11111222,11111222,99999999' 
TABS,ioos:station:wmo:42049:1,2003-06-04T13:30:00Z,28.3507,-96.0058,2.0,59.97239721,33.17225347,-99999.0,'11111222,11111222,99999999' 
TABS,ioos:station:wmo:42049:1,2003-06-04T14:00:00Z,28.3507,-96.0058,2.0,54.15124563,20.76329694,-99999.0,'11111222,11111222,99999999' 
TABS,ioos:station:wmo:42049:1,2003-06-04T14:30:00Z,28.3507,-96.0058,2.0,45.11082131,14.6371377,-99999.0,'11111222,11111222,99999999' 
TABS,ioos:station:wmo:42049:1,2003-06-04T15:00:00Z,28.3507,-96.0058,2.0,48.03566726,16.82446433,-99999.0,'11111222,11111222,99999999' 
TABS,ioos:station:wmo:42049:1,2003-06-04T15:30:00Z,28.3507,-96.0058,2.0,44.81587549,15.3937942,-99999.0,'11111222,11111222,99999999' 
TABS,ioos:station:wmo:42049:1,2003-06-04T16:00:00Z,28.3507,-96.0058,2.0,61.48335879,13.65688105,-99999.0,'11111222,11111222,99999999' 
TABS,ioos:station:wmo:42049:1,2003-06-04T16:30:00Z,28.3507,-96.0058,2.0,57.26804312,10.78210555,-99999.0,'11111222,11111222,99999999' 